sat.trackr.live / text

‹ back to catalog

STARLINK-3083

NORAD 49158 · 2021-082AE

PAYLOAD ACTIVE UNKNOWN

§ Identity

Operator
Country
US
Launch date
2021-09-14
Launch site
AFWTR
Launch vehicle
Mass (kg)
RCS (m²)

Purposes: comms

External: N2YO · Heavens-Above · Gunter

§ Orbital elements

Epoch: 2026-09-19T13:31:46.392096Z

Period
89.53 min
Inclination
69.9493°
Eccentricity
0.0007729
Mean motion
16.08486052 rev/d
Perigee alt
245.9 km
Apogee alt
256.1 km
Semi-major
6,629.1 km
B*
5.1544e-4
RAAN
339.7159°
Arg perigee
290.9421°
Mean anomaly
69.0966°
Rev number
28,066

§ Raw data

STARLINK-30831 49158U 21082AE  26262.56373139  .00440656  98970-4  51544-3 0  99992 49158  69.9493 339.7159 0007729 290.9421  69.0966 16.08486052280666

JSON: /api/v1/satellites/49158 · /tle

For live sub-satellite position, see the globe view (requires WebGL).

§ Visibility from observer

Set your observer location to see the next 7 days of passes ≥ 10°. The values pass through the URL so the page stays shareable.

No JS? Fill the form by hand. The geolocation button needs JavaScript.